• In Belarus
  • List of Countries
  • For 7 days
  • Water Temperature
  • Satellite Maps
  • Weather Map
  • Weather Widgets
  • user-avatar
    Login

    Hourly Weather Albena

    Today, 19 July, Friday

    Time Temperature Precipitation Wind Pressure Humidity
    00:00 +18°C° 0 mm 0 mps 745 mmHg 79%
    01:00 +18°C° 0 mm 0 mps 746 mmHg 79%
    02:00 +17°C° 0 mm 0 mps 746 mmHg 79%
    03:00 +17°C° 0 mm 0 mps 746 mmHg 79%
    04:00 +17°C° 0 mm 0 mps 746 mmHg 79%
    05:00 +17°C° 0 mm 0 mps 746 mmHg 79%
    06:00 +21°C° 0 mm 1 mps 746 mmHg 72%
    07:00 +23°C° 0 mm 1 mps 747 mmHg 64%
    08:00 +25°C° 0 mm 1 mps 747 mmHg 56%
    09:00 +27°C° 0 mm 2 mps 747 mmHg 52%
    10:00 +28°C° 0 mm 3 mps 747 mmHg 47%
    11:00 +29°C° 0 mm 3 mps 747 mmHg 42%
    12:00 +29°C° 0 mm 4 mps 747 mmHg 40%
    13:00 +29°C° 0 mm 4 mps 747 mmHg 39%
    14:00 +29°C° 0 mm 4 mps 747 mmHg 38%
    15:00 +29°C° 0 mm 4 mps 747 mmHg 39%
    16:00 +28°C° 0 mm 4 mps 747 mmHg 41%
    17:00 +27°C° 0 mm 4 mps 747 mmHg 43%
    18:00 +25°C° 0 mm 3 mps 747 mmHg 52%
    19:00 +22°C° 0 mm 3 mps 747 mmHg 61%
    20:00 +20°C° 0 mm 2 mps 747 mmHg 69%
    21:00 +20°C° 0 mm 2 mps 748 mmHg 72%
    22:00 +19°C° 0 mm 2 mps 748 mmHg 74%
    23:00 +20°C° 0 mm 1 mps 748 mmHg 76%

    Tomorrow, 20 July, Saturday

    Time Temperature Precipitation Wind Pressure Humidity
    00:00 +20°C° 0 mm 1 mps 748 mmHg 76%
    01:00 +19°C° 0 mm 1 mps 748 mmHg 76%
    02:00 +19°C° 0 mm 1 mps 748 mmHg 76%
    03:00 +19°C° 0 mm 1 mps 748 mmHg 74%
    04:00 +19°C° 0 mm 1 mps 748 mmHg 72%
    05:00 +19°C° 0 mm 1 mps 748 mmHg 70%
    06:00 +21°C° 0 mm 1 mps 748 mmHg 63%
    07:00 +23°C° 0 mm 1 mps 749 mmHg 56%
    08:00 +26°C° 0 mm 2 mps 749 mmHg 50%
    09:00 +27°C° 0 mm 2 mps 749 mmHg 47%
    10:00 +28°C° 0 mm 3 mps 749 mmHg 44%
    11:00 +29°C° 0 mm 4 mps 749 mmHg 41%
    12:00 +29°C° 0 mm 4 mps 749 mmHg 41%
    13:00 +30°C° 0 mm 4 mps 749 mmHg 40%
    14:00 +30°C° 0 mm 4 mps 749 mmHg 39%
    15:00 +29°C° 0 mm 4 mps 749 mmHg 42%
    16:00 +29°C° 0 mm 4 mps 749 mmHg 44%
    17:00 +28°C° 0 mm 4 mps 749 mmHg 47%
    18:00 +26°C° 0 mm 3 mps 749 mmHg 55%
    19:00 +24°C° 0 mm 2 mps 749 mmHg 63%
    20:00 +21°C° 0 mm 2 mps 749 mmHg 71%
    21:00 +21°C° 0 mm 1 mps 749 mmHg 73%
    22:00 +21°C° 0 mm 1 mps 749 mmHg 76%
    23:00 +18°C° 0 mm 0 mps 750 mmHg 79%

    Day after tomorrow, 21 July, Sunday

    Time Temperature Precipitation Wind Pressure Humidity
    00:00 +18°C° 0 mm 0 mps 749 mmHg 78%
    01:00 +20°C° 0 mm 1 mps 749 mmHg 77%
    02:00 +20°C° 0 mm 1 mps 749 mmHg 75%
    03:00 +19°C° 0 mm 1 mps 749 mmHg 73%
    04:00 +19°C° 0 mm 1 mps 749 mmHg 71%
    05:00 +19°C° 0 mm 1 mps 749 mmHg 69%
    06:00 +22°C° 0 mm 1 mps 749 mmHg 60%
    07:00 +24°C° 0 mm 1 mps 749 mmHg 52%
    08:00 +25°C° 0 mm 0 mps 749 mmHg 44%
    09:00 +28°C° 0 mm 1 mps 749 mmHg 40%
    10:00 +29°C° 0 mm 1 mps 750 mmHg 37%
    11:00 +31°C° 0 mm 2 mps 750 mmHg 33%
    12:00 +31°C° 0 mm 2 mps 750 mmHg 33%
    13:00 +33°C° 0 mm 3 mps 749 mmHg 32%
    14:00 +33°C° 0 mm 3 mps 749 mmHg 32%
    15:00 +32°C° 0 mm 4 mps 749 mmHg 35%
    16:00 +30°C° 0 mm 4 mps 749 mmHg 37%
    17:00 +29°C° 0 mm 4 mps 749 mmHg 40%
    18:00 +27°C° 0 mm 3 mps 749 mmHg 49%
    19:00 +25°C° 0 mm 2 mps 749 mmHg 58%
    20:00 +23°C° 0 mm 2 mps 749 mmHg 67%
    21:00 +22°C° 0 mm 1 mps 749 mmHg 66%
    22:00 +22°C° 0 mm 1 mps 749 mmHg 66%
    23:00 +22°C° 0 mm 1 mps 749 mmHg 65%

    22 July, Monday

    Time Temperature Precipitation Wind Pressure Humidity
    00:00 +22°C° 0 mm 1 mps 749 mmHg 62%
    01:00 +22°C° 0 mm 1 mps 749 mmHg 59%
    02:00 +22°C° 0 mm 1 mps 748 mmHg 56%
    03:00 +21°C° 0 mm 1 mps 748 mmHg 55%
    04:00 +21°C° 0 mm 1 mps 748 mmHg 54%
    05:00 +21°C° 0 mm 1 mps 748 mmHg 53%
    06:00 +24°C° 0 mm 1 mps 748 mmHg 48%
    07:00 +26°C° 0 mm 1 mps 748 mmHg 42%
    08:00 +29°C° 0 mm 1 mps 749 mmHg 37%
    09:00 +30°C° 0 mm 1 mps 749 mmHg 35%
    10:00 +32°C° 0 mm 2 mps 748 mmHg 33%
    11:00 +35°C° 0 mm 2 mps 748 mmHg 31%
    12:00 +35°C° 0 mm 3 mps 748 mmHg 30%
    13:00 +35°C° 0 mm 3 mps 748 mmHg 30%
    14:00 +35°C° 0 mm 4 mps 748 mmHg 30%
    15:00 +34°C° 0 mm 4 mps 747 mmHg 32%
    16:00 +33°C° 0 mm 4 mps 747 mmHg 33%
    17:00 +32°C° 0 mm 4 mps 747 mmHg 35%
    18:00 +29°C° 0 mm 4 mps 746 mmHg 41%
    19:00 +27°C° 0 mm 3 mps 746 mmHg 47%
    20:00 +25°C° 0 mm 3 mps 746 mmHg 53%
    21:00 +25°C° 0 mm 3 mps 746 mmHg 52%
    22:00 +25°C° 0 mm 2 mps 746 mmHg 51%
    23:00 +24°C° 0 mm 2 mps 746 mmHg 50%

    23 July, Tuesday

    Time Temperature Precipitation Wind Pressure Humidity
    00:00 +24°C° 0 mm 2 mps 746 mmHg 53%
    01:00 +23°C° 0 mm 2 mps 746 mmHg 55%
    02:00 +23°C° 0 mm 2 mps 746 mmHg 57%
    03:00 +21°C° 0 mm 3 mps 746 mmHg 65%
    04:00 +20°C° 0 mm 3 mps 746 mmHg 74%
    05:00 +20°C° 0 mm 4 mps 745 mmHg 82%
    06:00 +21°C° 0 mm 4 mps 746 mmHg 77%
    07:00 +23°C° 0 mm 5 mps 746 mmHg 71%
    08:00 +26°C° 0 mm 5 mps 746 mmHg 65%
    09:00 +27°C° 0 mm 6 mps 746 mmHg 63%
    10:00 +27°C° 0 mm 6 mps 746 mmHg 60%
    11:00 +28°C° 0 mm 7 mps 746 mmHg 58%
    12:00 +28°C° 0.2 mm 7 mps 746 mmHg 58%
    13:00 +28°C° 0.2 mm 7 mps 746 mmHg 57%
    14:00 +27°C° 0.2 mm 7 mps 746 mmHg 56%
    15:00 +26°C° 0.1 mm 7 mps 746 mmHg 59%
    16:00 +23°C° 0.1 mm 6 mps 746 mmHg 61%
    17:00 +22°C° 0.1 mm 6 mps 746 mmHg 64%
    18:00 +21°C° 0 mm 5 mps 746 mmHg 65%
    19:00 +21°C° 0 mm 4 mps 746 mmHg 67%
    20:00 +20°C° 0 mm 3 mps 746 mmHg 69%
    21:00 +19°C° 0 mm 3 mps 746 mmHg 73%
    22:00 +18°C° 0 mm 3 mps 746 mmHg 78%
    23:00 +17°C° 0 mm 3 mps 746 mmHg 83%

    24 July, Wednesday

    Time Temperature Precipitation Wind Pressure Humidity
    00:00 +17°C° 0 mm 4 mps 746 mmHg 84%
    01:00 +15°C° 0 mm 5 mps 746 mmHg 84%
    02:00 +15°C° 0 mm 5 mps 746 mmHg 85%
    03:00 +15°C° 0 mm 5 mps 746 mmHg 86%
    04:00 +15°C° 0 mm 5 mps 746 mmHg 87%
    05:00 +15°C° 0 mm 5 mps 746 mmHg 87%
    06:00 +17°C° 0 mm 5 mps 746 mmHg 77%
    07:00 +20°C° 0 mm 5 mps 746 mmHg 68%
    08:00 +22°C° 0 mm 6 mps 746 mmHg 58%
    09:00 +24°C° 0 mm 6 mps 746 mmHg 52%
    10:00 +26°C° 0 mm 6 mps 746 mmHg 47%
    11:00 +28°C° 0 mm 6 mps 746 mmHg 42%
    12:00 +28°C° 0 mm 5 mps 746 mmHg 40%
    13:00 +29°C° 0 mm 5 mps 746 mmHg 38%
    14:00 +30°C° 0 mm 4 mps 746 mmHg 36%
    15:00 +29°C° 0 mm 4 mps 745 mmHg 39%
    16:00 +28°C° 0 mm 3 mps 745 mmHg 41%
    17:00 +28°C° 0 mm 3 mps 745 mmHg 44%
    18:00 +26°C° 0 mm 3 mps 745 mmHg 49%
    19:00 +25°C° 0 mm 2 mps 745 mmHg 54%
    20:00 +23°C° 0 mm 2 mps 745 mmHg 60%
    21:00 +23°C° 0 mm 2 mps 746 mmHg 59%
    22:00 +21°C° 0 mm 2 mps 746 mmHg 59%
    23:00 +21°C° 0 mm 3 mps 746 mmHg 59%
    Show more